Regional Weather Roundup
Issued by NWS

Home | Current Version | Previous Version | Text Only | Print | Product List | Glossary On
Versions: 1 2 3 4 5 6 7 8 9 10 11 12 13 14 15 16 17 18 19 20 21 22 23 24 25 26 27 28 29 30 31 32 33 34 35 36 37 38 39 40 41 42 43 44 45 46 47 48 49 50
000
ASUS45 KBOI 260110
RWRID
WEATHER ROUNDUP FOR IDAHO
NATIONAL WEATHER SERVICE BOISE ID
700 PM MDT FRI JUL 25 2014

NOTE: "FAIR" INDICATES FEW OR NO CLOUDS BELOW 12000 FEET
WITH NO SIGNIFICANT WEATHER AND/OR OBSTRUCTIONS TO VISIBILITY

IDZ012-014-260200-
SOUTHWEST IDAHO


CITY           SKY/WX    TMP DP  RH WIND       PRES   REMARKS
BOISE          SUNNY     84  26  12 N8        29.98F
CALDWELL       SUNNY     82  30  15 N7        30.00F
MOUNTAIN HOME  SUNNY     86  26  11 NW15      29.96F
$$

IDZ016-017-260200-
SOUTHCENTRAL IDAHO


CITY           SKY/WX    TMP DP  RH WIND       PRES   REMARKS
BURLEY         SUNNY     80  37  21 W9        30.01F
JEROME         SUNNY     82  33  17 SW10      30.01F
TWIN FALLS     SUNNY     84  29  13 NW10      30.02F
$$

IDZ019>023-260200-
SOUTHEAST IDAHO


CITY           SKY/WX    TMP DP  RH WIND       PRES   REMARKS
IDAHO FALLS    SUNNY     83  32  16 S17       30.01F
POCATELLO      SUNNY     84  26  12 SW13      30.03F
REXBURG        SUNNY     80  32  17 S12G20    30.02F
$$

IDZ006-010-011-018-031-032-260200-
CENTRAL IDAHO MOUNTAINS


CITY           SKY/WX    TMP DP  RH WIND       PRES   REMARKS
MCCALL         SUNNY     76  23  14 VRB6      30.09F
HAILEY         MOSUNNY   79  28  15 S9G18     30.07
STANLEY          N/A     74  21  13 VRB6      30.16S
SALMON         MOSUNNY   81  36  19 N13G18    29.94R
CHALLIS        MOSUNNY   83  12   7 W12G20    30.01S
$$

IDZ002-004-006-007-026-260200-
NORTHERN IDAHO


CITY           SKY/WX    TMP DP  RH WIND       PRES   REMARKS
LEWISTON       SUNNY     83  42  23 W7        30.00F
LOWELL           N/A     77  45  32 CALM      29.99S
COEUR D`ALENE  SUNNY     75  43  31 W7        30.04F
MULLAN PASS    SUNNY     58  44  60 MISG      30.19S
$$



USA.gov is the U.S. government's official web portal to all federal, state and local government web resources and services.